User: anonymous
Location: Vancouver
(49.2500°N, 123.1330°W)
Time: 06:36:43
(UTC-07:00)
Language:

Iridium 35 - Orbit

View from above orbital plane
View from above orbital plane
View from above satellite
View from above satellite

Ground track
Ground track

The orbit data is extracted from the following two-line orbital elements,

1 24966U 97056B   14107.44289849  .00000351  00000-0  11845-3 0  7983
2 24966 086.3944 082.2246 0002228 101.4026 258.7420 14.34209854866733
Epoch (UTC): 17 April 2014 10:37:46
Eccentricity: 0.0002228
inclination: 86.3944°
perigee height: 776 km
apogee height: 779 km
right ascension of ascending node: 82.2246°
argument of perigee: 101.4026°
revolutions per day: 14.34209854
mean anomaly at epoch: 258.7420°
orbit number at epoch: 86673

The dashed part of the orbit path shows where the satellite is in the earth's shadow,  

DLR